Regional Weather Roundup
Issued by NWS

Home | Current Version | Previous Version | Graphics & Text | Print | Product List | Glossary On
Versions: 1 2 3 4 5 6 7 8 9 10 11 12 13 14 15 16 17 18 19 20 21 22 23 24 25 26 27 28 29 30 31 32 33 34 35 36 37 38 39 40 41 42 43 44 45 46 47 48 49 50
000
ASUS43 KIND 271759
RWRIN

WEATHER ROUNDUP FOR INDIANA
NATIONAL WEATHER SERVICE INDIANAPOLIS IN
200 PM EDT WED AUG 27 2014

NOTE: "FAIR" INDICATES FEW OR NO CLOUDS BELOW 12,000 FEET WITH NO
SIGNIFICANT WEATHER AND/OR OBSTRUCTIONS TO VISIBILITY.

* - STATION DOES NOT REPORT WEATHER SUCH AS PRECIPITATION OR FOG.

+ - STATION NOT QUALITY CONTROLLED BY THE NATIONAL WEATHER SERVICE.
    USE DATA WITH CAUTION...ESPECIALLY DEWPOINT AND RELATIVE
    HUMIDITY OBSERVATIONS.

INZ001>003-010>013-019-020-271900-
NORTHWEST INDIANA

CITY           SKY/WX    TMP DP  RH WIND       PRES   REMARKS
GARY /AIRPORT/ PTSUNNY   77  63  61 N9        30.15S
KNOX *+        MOSUNNY   77  62  60 NE6       30.13S
MONTICELLO +   MOSUNNY   80  69  70 CALM      30.11F
VALPARAISO     MOSUNNY   78  63  59 N6        30.14F
6HR MIN TEMP:  66; 6HR MAX TEMP:  79;


$$

LMZ046-743>745-271900-
SOUTHERN LAKE MICHIGAN

STATION/POSITION TIME  TEMP WIND        PRES
                       AIR  DIR/SP/G
                 (UTC) (F)  (DEG/KT/KT) (MB)
MICHIGAN CITY    1700   70   10/  8/  9   N/A

$$

INZ004-005-014>016-021>024-271900-
NORTH CENTRAL INDIANA

CITY           SKY/WX    TMP DP  RH WIND       PRES   REMARKS
ELKHART        SUNNY     77  57  50 NW5       30.13F
GOSHEN         SUNNY     78  61  55 CALM      30.12F
6HR MIN TEMP:  66; 6HR MAX TEMP:  79;

SOUTH BEND     SUNNY     78  61  55 N3        30.14S
6HR MIN TEMP:  65; 6HR MAX TEMP:  79;


$$

INZ006>009-017-018-025>027-271900-
NORTHEAST INDIANA

CITY           SKY/WX    TMP DP  RH WIND       PRES   REMARKS
FORT WAYNE     PTSUNNY   81  65  58 NW5       30.11F
6HR MIN TEMP:  71; 6HR MAX TEMP:  82;


$$

INZ028-029-035-036-043>045-051>053-271900-
WEST CENTRAL INDIANA

CITY           SKY/WX    TMP DP  RH WIND       PRES   REMARKS
GREENCASTLE +  SUNNY     82  70  65 CALM      30.11S
LAFAYETTE      MOSUNNY   81  71  71 CALM      30.10F
6HR MIN TEMP:  68; 6HR MAX TEMP:  82; 6HR PCP:  0.02;

TERRE HAUTE    SUNNY     88  71  57 CALM      30.09F
6HR MIN TEMP:  69; 6HR MAX TEMP:  88;


$$

INZ030>032-037>040-046>048-054>057-064-065-271900-
CENTRAL INDIANA

CITY           SKY/WX    TMP DP  RH WIND       PRES   REMARKS
ANDERSON       MOSUNNY   82  68  61 NW6       30.11F
COLUMBUS       MOSUNNY   86  73  66 NW5       30.09F
FRANKFORT +    MOSUNNY   82  72  72 N5        30.13S
INDIANAPOLIS   MOSUNNY   85  69  58 VRB3      30.09F
6HR MIN TEMP:  71; 6HR MAX TEMP:  86;

-EAGLE CREEK   SUNNY     85  69  58 VRB5      30.09F
6HR MIN TEMP:  72; 6HR MAX TEMP:  85;

KOKOMO *+      MOSUNNY   84  70  61 N5        30.10F
MT COMFORT *+  MOSUNNY   84  70  61 N3        30.10F
SHELBYVILLE    MOSUNNY   85  72  65 N3        30.09F
6HR MIN TEMP:  70; 6HR MAX TEMP:  86;


$$

INZ033-034-041-042-049-050-058-059-271900-
EAST CENTRAL INDIANA

CITY           SKY/WX    TMP DP  RH WIND       PRES   REMARKS
MUNCIE         MOSUNNY   83  70  64 N5        30.10F
6HR MIN TEMP:  68; 6HR MAX TEMP:  84;


$$

INZ060-061-067>069-081>083-085>088-271900-
SOUTHWEST INDIANA

CITY           SKY/WX    TMP DP  RH WIND       PRES   REMARKS
EVANSVILLE     MOSUNNY   92  72  51 N5        30.09F HX  99
6HR MIN TEMP:  75; 6HR MAX TEMP:  94;


$$

INZ062-063-066-070>080-084-089>092-271900-
SOUTH CENTRAL AND SOUTHEAST INDIANA

CITY           SKY/WX    TMP DP  RH WIND       PRES   REMARKS
BLOOMINGTON    SUNNY     87  72  60 VRB5      30.10F
6HR MIN TEMP:  69; 6HR MAX TEMP:  88;

SEYMOUR +      SUNNY     90  63  40 W5        30.08

$$



USA.gov is the U.S. government's official web portal to all federal, state and local government web resources and services.